Location: Moscow
(55.7500°N, 37.5830°E)
Time: 10:18:36
(UTC+03:00)

Vanguard 1 Rocket - Pass Details

Date: 04 December 2021
Orbit: 651 x 4224 km, 34.3° (Epoch: 23 January)

Event Time Altitude Azimuth Distance (km) Brightness Sun altitude
Exits shadow 02:16:09 20° 137° (SE) 4,344 10.7 -50.2°
Drops below altitude 10° 02:26:04 10° 103° (ESE) 6,131 11.8 -49.2°
Sets 02:33:55 0° 91° (E) 7,780 12.6 -48.3°
